Vacaville, CA

10:55 PM PST on February 13, 2016 (GMT -0800)
Nut Tree

Weather History for KVCB - December, 2012

Change the Weather History Date:

Monday, December 3, 2012

  Actual Average Record
Temperature  
Mean Temperature 50 °F -  
Max Temperature 60 °F 58 °F 74 °F (1959)
Min Temperature 39 °F 38 °F 28 °F (1968)
Degree Days  
Heating Degree Days 16    
Moisture  
Dew Point 45 °F    
Average Humidity 82    
Maximum Humidity 100    
Minimum Humidity 57    
Precipitation  
Precipitation 0.00 in - - ()
Sea Level Pressure  
Sea Level Pressure 30.18 in    
Wind  
Wind Speed 1 mph (NW)    
Max Wind Speed 6 mph    
Max Gust Speed -    
Visibility 10 miles    
Events      
Averages and records for this station are not official NWS values.
T = Trace of Precipitation, MM = Missing Value Source: NWS Daily Summary

Daily Weather History Graph

Daily Weather History Graph

Search for Another Location

Airport or City:

Trip Planner

Search our weather history database for the weather conditions in past years. The results will help you decide how hot, cold, wet, or windy it might be!

Date:

Astronomy

Dec. 03, 2012 Rise Set
Actual Time 7:08 AM PST 4:47 PM PST
Civil Twilight 6:39 AM PST 5:16 PM PST
Nautical Twilight 6:06 AM PST 5:49 PM PST
Astronomical Twilight 5:34 AM PST 6:21 PM PST
Moon 9:37 PM PST (12/3) 10:36 AM PST (12/3)
Length of Visible Light 10h 37m
Length of Day
9h 38m
Waning Gibbous, 77% of the Moon is Illuminated
Dec 3
Waning Gibbous
Dec 6
Last Quarter
Dec 13
New
Dec 19
First Quarter
Dec 28
Full

Hourly Weather History & Observations

Time (PST) Temp. Dew Point Humidity Pressure Visibility Wind Dir Wind Speed Gust Speed Precip Events Conditions
12:53 AM 43.0 °F 42.1 °F 97% 30.11 in 10.0 mi Calm Calm - N/A   Clear
1:53 AM 43.0 °F 42.1 °F 97% 30.12 in 10.0 mi Calm Calm - N/A   Clear
2:53 AM 42.1 °F 41.0 °F 96% 30.13 in 10.0 mi Calm Calm - N/A   Clear
3:53 AM 42.1 °F 41.0 °F 96% 30.14 in 10.0 mi Calm Calm - N/A   Clear
5:53 AM 39.9 °F 39.9 °F 100% 30.17 in 10.0 mi Calm Calm - N/A   Clear
7:53 AM 43.0 °F 43.0 °F 100% 30.19 in 10.0 mi Calm Calm - N/A   Clear
8:53 AM 48.9 °F 45.0 °F 86% 30.22 in 10.0 mi Calm Calm - N/A   Clear
9:53 AM 52.0 °F 46.0 °F 80% 30.22 in 10.0 mi North 5.8 mph - N/A   Clear
10:53 AM 55.0 °F 43.0 °F 64% 30.22 in 10.0 mi Variable 3.5 mph - N/A   Clear
11:53 AM 57.9 °F 45.0 °F 62% 30.20 in 10.0 mi Variable 4.6 mph - N/A   Clear
12:53 PM 59.0 °F 45.0 °F 60% 30.19 in 10.0 mi Variable 3.5 mph - N/A   Clear
1:53 PM 59.0 °F 45.0 °F 60% 30.17 in 10.0 mi Variable 3.5 mph - N/A   Clear
2:53 PM 60.1 °F 45.0 °F 57% 30.17 in 10.0 mi Variable 3.5 mph - N/A   Clear
3:53 PM 59.0 °F 46.0 °F 62% 30.18 in 10.0 mi Calm Calm - N/A   Clear
4:53 PM 53.1 °F 46.9 °F 80% 30.18 in 10.0 mi Calm Calm - N/A   Clear
5:53 PM 51.1 °F 48.0 °F 89% 30.18 in 10.0 mi Calm Calm - N/A   Clear
6:53 PM 53.1 °F 48.0 °F 83% 30.20 in 10.0 mi Calm Calm - N/A   Partly Cloudy
7:53 PM 52.0 °F 48.9 °F 89% 30.19 in 10.0 mi Calm Calm - N/A   Overcast
8:53 PM 52.0 °F 50.0 °F 93% 30.17 in 10.0 mi West 3.5 mph - N/A   Scattered Clouds
10:53 PM 52.0 °F 48.9 °F 89% 30.17 in 9.0 mi Calm Calm - N/A   Overcast
11:53 PM 53.1 °F 48.9 °F 86% 30.17 in 10.0 mi Calm Calm - N/A   Mostly Cloudy